{"data":{"norad_id":63754,"epoch":"2026-05-25T04:11:58.850016Z","epoch_age_seconds":69969,"freshness":"FRESH","line1":"1 63754U 25089D   26145.17498669  .00159540  00000+0  12172-2 0  9995","line2":"2 63754  42.9964 191.3075 0000816 150.4605 209.6309 15.70955921 62217","mean_motion":15.70955921,"eccentricity":8.16e-5,"inclination_deg":42.9964,"raan_deg":191.3075,"arg_perigee_deg":150.4605,"mean_anomaly_deg":209.6309,"bstar":0.0012172,"rev_number":6221,"period_min":91.663934089466,"perigee_km":355.61423908758,"apogee_km":356.71327697129,"semimajor_km":6734.3007580294,"source":"CELESTRAK","updated_at":"2026-05-25T13:38:20.103402Z"}}